| time (UTC) | temp F | wind direction | speed MPH | gust MPH | rain 1hr in | rain 24hr in | rain mn in | humidity % | barometer mb |
| 20260831101019 | 85 | 243 | 2.0 | 6.0 | 0.00 | 0.00 | 0.00 | 66 | 1008.5 |
| 20260831100525 | 85 | 250 | 2.0 | 7.0 | 0.00 | 0.00 | 0.00 | 66 | 1008.6 |
| 20260831100033 | 85 | 38 | 2.0 | 7.0 | 0.00 | 0.00 | 0.00 | 66 | 1008.5 |
| 20260831095541 | 85 | 115 | 1.0 | 13.0 | 0.00 | 0.00 | 0.00 | 66 | 1008.5 |
| 20260831095022 | 85 | 183 | 4.0 | 13.0 | 0.00 | 0.00 | 0.00 | 66 | 1008.4 |
| 20260831094530 | 85 | 191 | 2.0 | 6.0 | 0.00 | 0.00 | 0.00 | 67 | 1008.5 |
| 20260831094040 | 85 | 130 | 1.0 | 8.0 | 0.00 | 0.00 | 0.00 | 68 | 1008.4 |
| 20260831093523 | 85 | 131 | 3.0 | 8.0 | 0.00 | 0.00 | 0.00 | 68 | 1008.5 |
| 20260831093030 | 85 | 302 | 2.0 | 6.0 | 0.00 | 0.00 | 0.00 | 68 | 1008.5 |
| 20260831092535 | 85 | 208 | 2.0 | 6.0 | 0.00 | 0.00 | 0.00 | 68 | 1008.5 |
| 20260831092116 | 85 | 21 | 2.0 | 7.0 | 0.00 | 0.00 | 0.00 | 68 | 1008.5 |
| 20260831091541 | 86 | 307 | 2.0 | 7.0 | 0.00 | 0.00 | 0.00 | 68 | 1008.5 |
| 20260831091021 | 86 | 189 | 2.0 | 8.0 | 0.00 | 0.00 | 0.00 | 69 | 1008.4 |
| 20260831090531 | 86 | 331 | 3.0 | 8.0 | 0.00 | 0.00 | 0.00 | 68 | 1008.3 |
| 20260831090100 | 86 | 207 | 1.0 | 6.0 | 0.00 | 0.00 | 0.00 | 67 | 1008.3 |
| 20260831085521 | 86 | 311 | 2.0 | 8.0 | 0.00 | 0.00 | 0.00 | 67 | 1008.4 |
| 20260831085024 | 86 | 177 | 3.0 | 8.0 | 0.00 | 0.00 | 0.00 | 68 | 1008.4 |
| 20260831084555 | 86 | 176 | 2.0 | 6.0 | 0.00 | 0.00 | 0.00 | 67 | 1008.4 |
| 20260831084017 | 86 | 229 | 2.0 | 6.0 | 0.00 | 0.00 | 0.00 | 67 | 1008.4 |
| 20260831083527 | 86 | 224 | 2.0 | 6.0 | 0.00 | 0.00 | 0.00 | 67 | 1008.4 |
| 20260831083034 | 86 | 208 | 2.0 | 8.0 | 0.00 | 0.00 | 0.00 | 68 | 1008.4 |
| 20260831082518 | 87 | 98 | 2.0 | 7.0 | 0.00 | 0.00 | 0.00 | 67 | 1008.4 |
| 20260831082049 | 87 | 236 | 3.0 | 6.0 | 0.00 | 0.00 | 0.00 | 68 | 1008.4 |
| 20260831081516 | 86 | 191 | 3.0 | 7.0 | 0.00 | 0.00 | 0.00 | 69 | 1008.5 |
| 20260831081026 | 87 | 297 | 2.0 | 9.0 | 0.00 | 0.00 | 0.00 | 70 | 1008.4 |
| 20260831080537 | 87 | 231 | 3.0 | 9.0 | 0.00 | 0.00 | 0.00 | 68 | 1008.4 |
| 20260831080039 | 87 | 113 | 2.0 | 6.0 | 0.00 | 0.00 | 0.00 | 70 | 1008.3 |
| 20260831075521 | 87 | 133 | 1.0 | 8.0 | 0.00 | 0.00 | 0.00 | 70 | 1008.2 |
| 20260831075030 | 87 | 165 | 2.0 | 9.0 | 0.00 | 0.00 | 0.00 | 70 | 1008.3 |
| 20260831074540 | 88 | 122 | 3.0 | 9.0 | 0.00 | 0.00 | 0.00 | 70 | 1008.4 |
| 20260831074022 | 88 | 185 | 4.0 | 9.0 | 0.00 | 0.00 | 0.00 | 69 | 1008.1 |
| 20260831073530 | 88 | 318 | 3.0 | 7.0 | 0.00 | 0.00 | 0.00 | 70 | 1008.2 |
| 20260831073035 | 88 | 115 | 4.0 | 7.0 | 0.00 | 0.00 | 0.00 | 69 | 1008.1 |
| 20260831072518 | 89 | 129 | 2.0 | 8.0 | 0.00 | 0.00 | 0.00 | 68 | 1008.0 |
| 20260831072028 | 89 | 107 | 3.0 | 9.0 | 0.00 | 0.00 | 0.00 | 67 | 1008.0 |
| 20260831071538 | 89 | 154 | 3.0 | 9.0 | 0.00 | 0.00 | 0.00 | 68 | 1008.0 |
| 20260831071019 | 89 | 136 | 4.0 | 9.0 | 0.00 | 0.00 | 0.00 | 68 | 1008.0 |
| 20260831070529 | 89 | 119 | 4.0 | 10.0 | 0.00 | 0.00 | 0.00 | 66 | 1007.9 |
| 20260831070016 | 89 | 100 | 3.0 | 11.0 | 0.00 | 0.00 | 0.00 | 67 | 1007.9 |
| 20260831065541 | 89 | 67 | 2.0 | 11.0 | 0.00 | 0.00 | 0.00 | 68 | 1007.8 |
| 20260831065024 | 89 | 63 | 3.0 | 10.0 | 0.00 | 0.00 | 0.00 | 66 | 1007.7 |
| 20260831064533 | 89 | 178 | 3.0 | 11.0 | 0.00 | 0.00 | 0.00 | 67 | 1007.9 |
| 20260831064042 | 89 | 198 | 3.0 | 11.0 | 0.00 | 0.00 | 0.00 | 68 | 1008.0 |
| 20260831063524 | 89 | 25 | 3.0 | 12.0 | 0.00 | 0.00 | 0.00 | 67 | 1008.0 |
| 20260831063031 | 90 | 96 | 3.0 | 12.0 | 0.00 | 0.00 | 0.00 | 67 | 1008.0 |
| 20260831062602 | 90 | 73 | 2.0 | 9.0 | 0.00 | 0.00 | 0.00 | 68 | 1008.0 |
| 20260831062019 | 89 | 77 | 2.0 | 9.0 | 0.00 | 0.00 | 0.00 | 68 | 1008.1 |
| 20260831061526 | 90 | 46 | 3.0 | 8.0 | 0.00 | 0.00 | 0.00 | 66 | 1008.2 |
| 20260831061037 | 89 | 80 | 3.0 | 8.0 | 0.00 | 0.00 | 0.00 | 66 | 1008.2 |
| 20260831060518 | 90 | 257 | 2.0 | 8.0 | 0.00 | 0.00 | 0.00 | 66 | 1008.2 |
| 20260831060024 | 90 | 290 | 2.0 | 8.0 | 0.00 | 0.00 | 0.00 | 66 | 1008.3 |
| 20260831055533 | 90 | 289 | 3.0 | 9.0 | 0.00 | 0.00 | 0.00 | 65 | 1008.2 |
| 20260831055103 | 89 | 64 | 4.0 | 9.0 | 0.00 | 0.00 | 0.00 | 67 | 1008.1 |
| 20260831054522 | 89 | 105 | 3.0 | 10.0 | 0.00 | 0.00 | 0.00 | 67 | 1008.3 |
| 20260831054027 | 89 | 63 | 3.0 | 9.0 | 0.00 | 0.00 | 0.00 | 68 | 1008.3 |
| 20260831053536 | 90 | 159 | 2.0 | 9.0 | 0.00 | 0.00 | 0.00 | 68 | 1008.3 |
| 20260831053014 | 89 | 148 | 2.0 | 9.0 | 0.00 | 0.00 | 0.00 | 68 | 1008.4 |
| 20260831052524 | 89 | 82 | 4.0 | 10.0 | 0.00 | 0.00 | 0.00 | 68 | 1008.4 |
| 20260831052054 | 89 | 53 | 5.0 | 11.0 | 0.00 | 0.00 | 0.00 | 67 | 1008.3 |
| 20260831051541 | 89 | 167 | 4.0 | 11.0 | 0.00 | 0.00 | 0.00 | 68 | 1008.4 |
| 20260831051022 | 89 | 153 | 3.0 | 12.0 | 0.00 | 0.00 | 0.00 | 68 | 1008.5 |
| 20260831050528 | 89 | 16 | 4.0 | 13.0 | 0.00 | 0.00 | 0.00 | 68 | 1008.5 |
| 20260831050034 | 89 | 79 | 5.0 | 13.0 | 0.00 | 0.00 | 0.00 | 68 | 1008.4 |
| 20260831045541 | 89 | 125 | 2.0 | 9.0 | 0.00 | 0.00 | 0.00 | 69 | 1008.7 |
| 20260831045042 | 89 | 44 | 5.0 | 13.0 | 0.00 | 0.00 | 0.00 | 69 | 1008.6 |
| 20260831044551 | 89 | 42 | 5.0 | 13.0 | 0.00 | 0.00 | 0.00 | 69 | 1008.8 |
| 20260831044039 | 89 | 105 | 3.0 | 10.0 | 0.00 | 0.00 | 0.00 | 69 | 1008.8 |
| 20260831043520 | 89 | 39 | 5.0 | 10.0 | 0.00 | 0.00 | 0.00 | 68 | 1008.7 |
| 20260831043027 | 88 | 21 | 3.0 | 11.0 | 0.00 | 0.00 | 0.00 | 69 | 1008.7 |
| 20260831042522 | 88 | 31 | 6.0 | 14.0 | 0.00 | 0.00 | 0.00 | 69 | 1008.6 |
| 20260831042033 | 88 | 47 | 7.0 | 14.0 | 0.00 | 0.00 | 0.00 | 68 | 1008.6 |
| 20260831041521 | 89 | 106 | 5.0 | 15.0 | 0.00 | 0.00 | 0.00 | 69 | 1008.6 |
| 20260831041123 | 89 | 53 | 6.0 | 15.0 | 0.00 | 0.00 | 0.00 | 70 | 1008.7 |
| 20260831040526 | 89 | 140 | 4.0 | 12.0 | 0.00 | 0.00 | 0.00 | 70 | 1008.7 |
| 20260831040050 | 89 | 120 | 5.0 | 12.0 | 0.00 | 0.00 | 0.00 | 69 | 1008.6 |
| 20260831035537 | 88 | 140 | 4.0 | 11.0 | 0.00 | 0.00 | 0.00 | 70 | 1008.8 |
| 20260831035019 | 88 | 74 | 4.0 | 11.0 | 0.00 | 0.00 | 0.00 | 71 | 1008.7 |
| 20260831034527 | 89 | 103 | 4.0 | 13.0 | 0.00 | 0.00 | 0.00 | 71 | 1008.8 |
| 20260831034036 | 88 | 64 | 4.0 | 10.0 | 0.00 | 0.00 | 0.00 | 72 | 1008.8 |
| 20260831033517 | 88 | 79 | 6.0 | 11.0 | 0.00 | 0.00 | 0.00 | 72 | 1008.9 |
| 20260831033023 | 88 | 81 | 4.0 | 12.0 | 0.00 | 0.00 | 0.00 | 72 | 1008.8 |
| 20260831032533 | 88 | 15 | 7.0 | 12.0 | 0.00 | 0.00 | 0.00 | 72 | 1008.7 |
| 20260831032100 | 88 | 51 | 5.0 | 13.0 | 0.00 | 0.00 | 0.00 | 73 | 1008.8 |
| 20260831031519 | 88 | 146 | 5.0 | 13.0 | 0.00 | 0.00 | 0.00 | 73 | 1008.9 |
| 20260831031029 | 88 | 154 | 5.0 | 11.0 | 0.00 | 0.00 | 0.00 | 73 | 1009.1 |
| 20260831030536 | 88 | 58 | 5.0 | 13.0 | 0.00 | 0.00 | 0.00 | 72 | 1009.0 |
| 20260831030015 | 88 | 354 | 6.0 | 13.0 | 0.00 | 0.00 | 0.00 | 72 | 1008.9 |
| 20260831025523 | 88 | 84 | 4.0 | 13.0 | 0.00 | 0.00 | 0.00 | 73 | 1009.0 |
| 20260831025031 | 88 | 152 | 7.0 | 13.0 | 0.00 | 0.00 | 0.00 | 73 | 1009.1 |
| 20260831024536 | 88 | 75 | 4.0 | 12.0 | 0.00 | 0.00 | 0.00 | 73 | 1009.1 |
| 20260831024016 | 88 | 83 | 4.0 | 12.0 | 0.00 | 0.00 | 0.00 | 74 | 1009.1 |
| 20260831023526 | 88 | 51 | 6.0 | 12.0 | 0.00 | 0.00 | 0.00 | 72 | 1009.2 |
| 20260831023033 | 88 | 76 | 5.0 | 11.0 | 0.00 | 0.00 | 0.00 | 73 | 1009.2 |
| 20260831022515 | 88 | 333 | 6.0 | 11.0 | 0.00 | 0.00 | 0.00 | 71 | 1009.2 |
| 20260831022023 | 88 | 344 | 5.0 | 11.0 | 0.00 | 0.00 | 0.00 | 71 | 1009.3 |
| 20260831021530 | 88 | 103 | 4.0 | 9.0 | 0.00 | 0.00 | 0.00 | 72 | 1009.4 |
| 20260831021039 | 87 | 49 | 4.0 | 9.0 | 0.00 | 0.00 | 0.00 | 73 | 1009.4 |
| 20260831020556 | 87 | 49 | 3.0 | 8.0 | 0.00 | 0.00 | 0.00 | 75 | 1009.4 |
| 20260831020015 | 87 | 77 | 3.0 | 8.0 | 0.00 | 0.00 | 0.00 | 75 | 1009.4 |
| 20260831015523 | 87 | 38 | 3.0 | 9.0 | 0.00 | 0.00 | 0.00 | 77 | 1009.3 |
| 20260831015032 | 87 | 38 | 5.0 | 9.0 | 0.00 | 0.00 | 0.00 | 75 | 1009.2 |
| 20260831014536 | 87 | 4 | 4.0 | 7.0 | 0.00 | 0.00 | 0.00 | 75 | 1009.2 |
| 20260831014018 | 87 | 26 | 5.0 | 11.0 | 0.00 | 0.00 | 0.00 | 76 | 1009.2 |
| 20260831013527 | 87 | 69 | 6.0 | 11.0 | 0.00 | 0.00 | 0.00 | 75 | 1009.3 |
| 20260831013029 | 87 | 86 | 5.0 | 11.0 | 0.00 | 0.00 | 0.00 | 75 | 1009.3 |
| 20260831012537 | 87 | 101 | 5.0 | 10.0 | 0.00 | 0.00 | 0.00 | 74 | 1009.2 |
| 20260831012040 | 87 | 136 | 3.0 | 12.0 | 0.00 | 0.00 | 0.00 | 75 | 1009.3 |
| 20260831011527 | 87 | 31 | 6.0 | 11.0 | 0.00 | 0.00 | 0.00 | 74 | 1009.1 |
| 20260831011055 | 87 | 177 | 2.0 | 6.0 | 0.00 | 0.00 | 0.00 | 75 | 1009.2 |
| 20260831010604 | 87 | 75 | 3.0 | 7.0 | 0.00 | 0.00 | 0.00 | 76 | 1009.2 |
| 20260831010019 | 87 | 72 | 4.0 | 8.0 | 0.00 | 0.00 | 0.00 | 76 | 1009.4 |
| 20260831005528 | 87 | 156 | 3.0 | 8.0 | 0.00 | 0.00 | 0.00 | 76 | 1009.4 |
| 20260831005034 | 86 | 30 | 2.0 | 8.0 | 0.00 | 0.00 | 0.00 | 76 | 1009.4 |
| 20260831004547 | 86 | 81 | 4.0 | 10.0 | 0.00 | 0.00 | 0.00 | 77 | 1009.2 |
| 20260831004019 | 86 | 95 | 4.0 | 10.0 | 0.00 | 0.00 | 0.00 | 77 | 1009.2 |
| 20260831003530 | 86 | 106 | 3.0 | 8.0 | 0.00 | 0.00 | 0.00 | 77 | 1009.4 |
| 20260831003036 | 86 | 123 | 2.0 | 10.0 | 0.00 | 0.00 | 0.00 | 78 | 1009.3 |
| 20260831002518 | 86 | 66 | 6.0 | 9.0 | 0.00 | 0.00 | 0.00 | 77 | 1009.4 |
| 20260831002025 | 86 | 178 | 3.0 | 8.0 | 0.00 | 0.00 | 0.00 | 77 | 1009.4 |
| 20260831001529 | 86 | 64 | 4.0 | 8.0 | 0.00 | 0.00 | 0.00 | 78 | 1009.2 |
| 20260831001037 | 86 | 61 | 5.0 | 8.0 | 0.00 | 0.00 | 0.00 | 78 | 1009.2 |
| 20260831000520 | 86 | 107 | 3.0 | 5.0 | 0.00 | 0.00 | 0.00 | 78 | 1009.2 |
| 20260831000024 | 85 | 188 | 2.0 | 6.0 | 0.00 | 0.00 | 0.00 | 79 | 1009.1 |
| 20260830235534 | 85 | 186 | 2.0 | 6.0 | 0.00 | 0.00 | 0.00 | 78 | 1009.2 |
| 20260830235016 | 85 | 68 | 3.0 | 6.0 | 0.00 | 0.00 | 0.00 | 79 | 1009.2 |
| 20260830234515 | 85 | 111 | 3.0 | 6.0 | 0.00 | 0.00 | 0.00 | 79 | 1009.1 |
| 20260830234023 | 85 | 17 | 3.0 | 6.0 | 0.00 | 0.00 | 0.00 | 79 | 1009.1 |
| 20260830233529 | 85 | 89 | 2.0 | 6.0 | 0.00 | 0.00 | 0.00 | 79 | 1009.0 |
| 20260830233033 | 85 | 113 | 3.0 | 8.0 | 0.00 | 0.00 | 0.00 | 79 | 1009.0 |
| 20260830232515 | 85 | 97 | 3.0 | 8.0 | 0.00 | 0.00 | 0.00 | 80 | 1009.0 |
| 20260830232024 | 84 | 112 | 3.0 | 5.0 | 0.00 | 0.00 | 0.00 | 80 | 1008.9 |
| 20260830231533 | 84 | 112 | 1.0 | 4.0 | 0.00 | 0.00 | 0.00 | 81 | 1008.9 |
| 20260830231102 | 84 | 163 | 1.0 | 6.0 | 0.00 | 0.00 | 0.00 | 80 | 1008.9 |
| 20260830230523 | 84 | 155 | 1.0 | 4.0 | 0.00 | 0.00 | 0.00 | 81 | 1008.9 |
| 20260830230046 | 84 | 150 | 1.0 | 5.0 | 0.00 | 0.00 | 0.00 | 80 | 1008.8 |
| 20260830225533 | 84 | 330 | 0.0 | 4.0 | 0.00 | 0.00 | 0.00 | 80 | 1008.9 |
| 20260830225015 | 84 | 133 | 0.0 | 3.0 | 0.00 | 0.00 | 0.00 | 80 | 1008.9 |
| 20260830224523 | 83 | 179 | 1.0 | 3.0 | 0.00 | 0.00 | 0.00 | 80 | 1008.9 |
| 20260830224032 | 83 | 151 | 1.0 | 1.0 | 0.00 | 0.00 | 0.00 | 80 | 1008.8 |
| 20260830223604 | 82 | 151 | 0.0 | 2.0 | 0.00 | 0.00 | 0.00 | 81 | 1008.7 |
| 20260830223021 | 82 | 186 | 0.0 | 3.0 | 0.00 | 0.00 | 0.00 | 81 | 1008.8 |
| 20260830222529 | 82 | 183 | 1.0 | 3.0 | 0.00 | 0.00 | 0.00 | 82 | 1008.8 |
| 20260830222031 | 81 | 182 | 1.0 | 4.0 | 0.00 | 0.00 | 0.00 | 82 | 1008.6 |
| 20260830221538 | 81 | 181 | 2.0 | 6.0 | 0.00 | 0.00 | 0.00 | 82 | 1008.6 |
| 20260830221019 | 81 | 184 | 2.0 | 6.0 | 0.00 | 0.00 | 0.00 | 82 | 1008.6 |
| 20260830220528 | 81 | 177 | 1.0 | 4.0 | 0.00 | 0.00 | 0.00 | 83 | 1008.5 |
| 20260830220057 | 81 | 176 | 3.0 | 4.0 | 0.00 | 0.00 | 0.00 | 83 | 1008.5 |
| 20260830215517 | 80 | 193 | 1.0 | 3.0 | 0.00 | 0.00 | 0.00 | 84 | 1008.5 |
| 20260830215026 | 80 | 177 | 0.0 | 2.0 | 0.00 | 0.00 | 0.00 | 84 | 1008.6 |
| 20260830214516 | 80 | 177 | 1.0 | 2.0 | 0.00 | 0.00 | 0.00 | 85 | 1008.5 |
| 20260830214021 | 80 | 185 | 0.0 | 1.0 | 0.00 | 0.00 | 0.00 | 85 | 1008.5 |
| 20260830213532 | 80 | 185 | 0.0 | 2.0 | 0.00 | 0.00 | 0.00 | 85 | 1008.4 |
| 20260830213040 | 79 | 185 | 1.0 | 3.0 | 0.00 | 0.00 | 0.00 | 85 | 1008.4 |
| 20260830212522 | 79 | 186 | 1.0 | 3.0 | 0.00 | 0.00 | 0.00 | 85 | 1008.4 |
| 20260830212030 | 79 | 171 | 0.0 | 2.0 | 0.00 | 0.00 | 0.00 | 85 | 1008.4 |
| 20260830211540 | 79 | 183 | 0.0 | 2.0 | 0.00 | 0.00 | 0.00 | 85 | 1008.3 |
| 20260830211042 | 79 | 183 | 1.0 | 3.0 | 0.00 | 0.00 | 0.00 | 85 | 1008.4 |
| 20260830210526 | 79 | 183 | 1.0 | 3.0 | 0.00 | 0.00 | 0.00 | 85 | 1008.3 |
| 20260830210032 | 79 | 178 | 0.0 | 2.0 | 0.00 | 0.00 | 0.00 | 85 | 1008.3 |
| 20260830205518 | 79 | 180 | 0.0 | 2.0 | 0.00 | 0.00 | 0.00 | 85 | 1008.3 |
| 20260830205024 | 79 | 180 | 1.0 | 2.0 | 0.00 | 0.00 | 0.00 | 85 | 1008.2 |
| 20260830204533 | 79 | 180 | 1.0 | 1.0 | 0.00 | 0.00 | 0.00 | 85 | 1008.1 |
| 20260830204041 | 78 | 180 | 1.0 | 1.0 | 0.00 | 0.00 | 0.00 | 85 | 1008.1 |
| 20260830203524 | 78 | 180 | 0.0 | 1.0 | 0.00 | 0.00 | 0.00 | 85 | 1008.0 |
| 20260830203050 | 78 | 180 | 0.0 | 1.0 | 0.00 | 0.00 | 0.00 | 85 | 1007.9 |
| 20260830202532 | 78 | 181 | 0.0 | 2.0 | 0.00 | 0.00 | 0.00 | 85 | 1007.9 |
| 20260830202041 | 79 | 176 | 1.0 | 2.0 | 0.00 | 0.00 | 0.00 | 85 | 1007.8 |
| 20260830201521 | 79 | 184 | 1.0 | 3.0 | 0.00 | 0.00 | 0.00 | 85 | 1007.8 |
| 20260830201046 | 79 | 184 | 1.0 | 3.0 | 0.00 | 0.00 | 0.00 | 85 | 1007.8 |
| 20260830200535 | 79 | 174 | 0.0 | 0.0 | 0.00 | 0.00 | 0.00 | 85 | 1007.7 |
| 20260830200017 | 79 | 174 | 0.0 | 1.0 | 0.00 | 0.00 | 0.00 | 85 | 1007.7 |
| 20260830195517 | 79 | 174 | 0.0 | 1.0 | 0.00 | 0.00 | 0.00 | 85 | 1007.7 |
| 20260830195022 | 79 | 174 | 0.0 | 1.0 | 0.00 | 0.00 | 0.00 | 85 | 1007.8 |
| 20260830194533 | 79 | 174 | 0.0 | 1.0 | 0.00 | 0.00 | 0.00 | 85 | 1007.7 |
| 20260830194041 | 79 | 174 | 0.0 | 1.0 | 0.00 | 0.00 | 0.00 | 85 | 1007.7 |
| 20260830193523 | 79 | 174 | 0.0 | 2.0 | 0.00 | 0.00 | 0.00 | 85 | 1007.7 |
| 20260830193028 | 79 | 184 | 2.0 | 3.0 | 0.00 | 0.00 | 0.00 | 85 | 1007.5 |
| 20260830192558 | 79 | 185 | 1.0 | 3.0 | 0.00 | 0.00 | 0.00 | 85 | 1007.5 |
| 20260830192019 | 79 | 185 | 1.0 | 2.0 | 0.00 | 0.00 | 0.00 | 85 | 1007.5 |
| 20260830191529 | 79 | 185 | 0.0 | 1.0 | 0.00 | 0.00 | 0.00 | 85 | 1007.6 |
| 20260830191054 | 80 | 185 | 1.0 | 1.0 | 0.00 | 0.00 | 0.00 | 85 | 1007.6 |
| 20260830190538 | 80 | 185 | 0.0 | 2.0 | 0.00 | 0.00 | 0.00 | 84 | 1007.5 |
| 20260830190046 | 80 | 185 | 1.0 | 2.0 | 0.00 | 0.00 | 0.00 | 84 | 1007.5 |
| 20260830185533 | 80 | 187 | 1.0 | 2.0 | 0.00 | 0.00 | 0.00 | 84 | 1007.5 |
| 20260830185037 | 80 | 177 | 0.0 | 2.0 | 0.00 | 0.00 | 0.00 | 85 | 1007.6 |
| 20260830184525 | 80 | 176 | 0.0 | 1.0 | 0.00 | 0.00 | 0.00 | 85 | 1007.6 |
| 20260830183519 | 80 | 182 | 0.0 | 2.0 | 0.00 | 0.00 | 0.00 | 85 | 1007.6 |
| 20260830183022 | 80 | 164 | 1.0 | 2.0 | 0.00 | 0.00 | 0.00 | 85 | 1007.5 |
| 20260830182530 | 80 | 171 | 0.0 | 2.0 | 0.00 | 0.00 | 0.00 | 85 | 1007.5 |
| 20260830182101 | 81 | 171 | 0.0 | 2.0 | 0.00 | 0.00 | 0.00 | 85 | 1007.6 |
| 20260830181518 | 81 | 180 | 2.0 | 3.0 | 0.00 | 0.00 | 0.00 | 85 | 1007.7 |
| 20260830181027 | 81 | 174 | 2.0 | 3.0 | 0.00 | 0.00 | 0.00 | 86 | 1007.6 |
| 20260830180541 | 81 | 178 | 0.0 | 3.0 | 0.00 | 0.00 | 0.00 | 86 | 1007.6 |
| 20260830180022 | 81 | 162 | 0.0 | 1.0 | 0.00 | 0.00 | 0.00 | 86 | 1007.7 |
| 20260830175552 | 81 | 162 | 0.0 | 1.0 | 0.00 | 0.00 | 0.00 | 85 | 1007.6 |
| 20260830175036 | 81 | 162 | 0.0 | 1.0 | 0.00 | 0.00 | 0.00 | 85 | 1007.6 |
| 20260830174519 | 81 | 162 | 0.0 | 1.0 | 0.00 | 0.00 | 0.00 | 85 | 1007.6 |
| 20260830174028 | 81 | 162 | 0.0 | 1.0 | 0.00 | 0.00 | 0.00 | 85 | 1007.6 |
| 20260830173600 | 81 | 162 | 0.0 | 1.0 | 0.00 | 0.00 | 0.00 | 85 | 1007.6 |
| 20260830173020 | 81 | 162 | 0.0 | 1.0 | 0.00 | 0.00 | 0.00 | 85 | 1007.7 |
| 20260830172529 | 81 | 162 | 0.0 | 1.0 | 0.00 | 0.00 | 0.00 | 85 | 1007.6 |
| 20260830172038 | 81 | 162 | 0.0 | 1.0 | 0.00 | 0.00 | 0.00 | 85 | 1007.6 |
| 20260830171520 | 81 | 162 | 0.0 | 1.0 | 0.00 | 0.00 | 0.00 | 85 | 1007.6 |
| 20260830171025 | 81 | 162 | 0.0 | 1.0 | 0.00 | 0.00 | 0.00 | 85 | 1007.6 |
| 20260830170557 | 81 | 162 | 0.0 | 0.0 | 0.00 | 0.00 | 0.00 | 85 | 1007.6 |
| 20260830170017 | 81 | 162 | 0.0 | 0.0 | 0.00 | 0.00 | 0.00 | 84 | 1007.6 |
| 20260830165528 | 81 | 162 | 0.0 | 0.0 | 0.00 | 0.00 | 0.00 | 84 | 1007.6 |
| 20260830165040 | 81 | 162 | 0.0 | 0.0 | 0.00 | 0.00 | 0.00 | 84 | 1007.7 |
| 20260830164544 | 81 | 162 | 0.0 | 1.0 | 0.00 | 0.00 | 0.00 | 83 | 1007.6 |
| 20260830164033 | 81 | 162 | 0.0 | 1.0 | 0.00 | 0.00 | 0.00 | 83 | 1007.7 |
| 20260830163540 | 81 | 162 | 0.0 | 0.0 | 0.00 | 0.00 | 0.00 | 82 | 1007.7 |
| 20260830163040 | 81 | 162 | 0.0 | 1.0 | 0.00 | 0.00 | 0.00 | 82 | 1007.7 |
| 20260830162530 | 81 | 162 | 0.0 | 1.0 | 0.00 | 0.00 | 0.00 | 82 | 1007.7 |
| 20260830162040 | 81 | 162 | 0.0 | 2.0 | 0.00 | 0.00 | 0.00 | 82 | 1007.7 |
| 20260830161521 | 81 | 162 | 0.0 | 2.0 | 0.00 | 0.00 | 0.00 | 81 | 1007.8 |
| 20260830161029 | 81 | 162 | 1.0 | 2.0 | 0.00 | 0.00 | 0.00 | 81 | 1007.7 |
| 20260830160538 | 81 | 162 | 0.0 | 1.0 | 0.00 | 0.00 | 0.00 | 81 | 1007.9 |
| 20260830160019 | 81 | 162 | 0.0 | 1.0 | 0.00 | 0.00 | 0.00 | 81 | 1007.8 |
| 20260830155527 | 81 | 162 | 0.0 | 0.0 | 0.00 | 0.00 | 0.00 | 81 | 1007.9 |
| 20260830155037 | 81 | 162 | 0.0 | 0.0 | 0.00 | 0.00 | 0.00 | 81 | 1007.9 |
| 20260830154516 | 81 | 162 | 0.0 | 0.0 | 0.00 | 0.00 | 0.00 | 81 | 1008.0 |
| 20260830154049 | 81 | 162 | 0.0 | 0.0 | 0.00 | 0.00 | 0.00 | 81 | 1007.9 |
| 20260830153540 | 81 | 162 | 0.0 | 0.0 | 0.00 | 0.00 | 0.00 | 81 | 1008.0 |
| 20260830153022 | 81 | 162 | 0.0 | 0.0 | 0.00 | 0.00 | 0.00 | 80 | 1008.0 |
| 20260830152556 | 81 | 162 | 0.0 | 0.0 | 0.00 | 0.00 | 0.00 | 80 | 1008.1 |
| 20260830152020 | 81 | 162 | 0.0 | 1.0 | 0.00 | 0.00 | 0.00 | 80 | 1008.1 |
| 20260830151525 | 82 | 162 | 0.0 | 1.0 | 0.00 | 0.00 | 0.00 | 80 | 1008.1 |
| 20260830151059 | 82 | 162 | 0.0 | 0.0 | 0.00 | 0.00 | 0.00 | 79 | 1008.1 |
| 20260830150523 | 82 | 162 | 0.0 | 0.0 | 0.00 | 0.00 | 0.00 | 79 | 1008.2 |
| 20260830150030 | 82 | 162 | 0.0 | 0.0 | 0.00 | 0.00 | 0.00 | 79 | 1008.2 |
| 20260830145538 | 82 | 162 | 0.0 | 0.0 | 0.00 | 0.00 | 0.00 | 78 | 1008.2 |
| 20260830145024 | 82 | 162 | 0.0 | 0.0 | 0.00 | 0.00 | 0.00 | 78 | 1008.3 |
| 20260830144536 | 82 | 162 | 0.0 | 0.0 | 0.00 | 0.00 | 0.00 | 77 | 1008.3 |
| 20260830144018 | 83 | 162 | 0.0 | 0.0 | 0.00 | 0.00 | 0.00 | 77 | 1008.4 |
| 20260830143529 | 83 | 162 | 0.0 | 1.0 | 0.00 | 0.00 | 0.00 | 77 | 1008.3 |
| 20260830143057 | 83 | 162 | 1.0 | 1.0 | 0.00 | 0.00 | 0.00 | 77 | 1008.3 |
| 20260830142541 | 83 | 162 | 0.0 | 0.0 | 0.00 | 0.00 | 0.00 | 76 | 1008.3 |
| 20260830142033 | 83 | 162 | 0.0 | 0.0 | 0.00 | 0.00 | 0.00 | 76 | 1008.4 |
| 20260830141520 | 83 | 162 | 0.0 | 0.0 | 0.00 | 0.00 | 0.00 | 76 | 1008.4 |
| 20260830141032 | 84 | 162 | 0.0 | 0.0 | 0.00 | 0.00 | 0.00 | 75 | 1008.4 |
| 20260830140520 | 84 | 162 | 0.0 | 0.0 | 0.00 | 0.00 | 0.00 | 75 | 1008.4 |
| 20260830140028 | 84 | 162 | 0.0 | 0.0 | 0.00 | 0.00 | 0.00 | 74 | 1008.4 |
| 20260830135530 | 84 | 162 | 0.0 | 1.0 | 0.00 | 0.00 | 0.00 | 74 | 1008.5 |
| 20260830135016 | 84 | 162 | 0.0 | 1.0 | 0.00 | 0.00 | 0.00 | 74 | 1008.5 |
| 20260830134524 | 85 | 162 | 0.0 | 2.0 | 0.00 | 0.00 | 0.00 | 74 | 1008.4 |
| 20260830134033 | 85 | 162 | 0.0 | 2.0 | 0.00 | 0.00 | 0.00 | 73 | 1008.5 |
| 20260830133542 | 85 | 162 | 0.0 | 3.0 | 0.00 | 0.00 | 0.00 | 73 | 1008.4 |
| 20260830133021 | 85 | 158 | 2.0 | 3.0 | 0.00 | 0.00 | 0.00 | 73 | 1008.3 |
| 20260830132531 | 85 | 172 | 1.0 | 3.0 | 0.00 | 0.00 | 0.00 | 73 | 1008.3 |
| 20260830132038 | 85 | 176 | 1.0 | 3.0 | 0.00 | 0.00 | 0.00 | 73 | 1008.2 |
| 20260830131537 | 85 | 162 | 1.0 | 3.0 | 0.00 | 0.00 | 0.00 | 73 | 1008.3 |
| 20260830131046 | 85 | 186 | 1.0 | 4.0 | 0.00 | 0.00 | 0.00 | 74 | 1008.4 |
| 20260830130556 | 85 | 174 | 2.0 | 4.0 | 0.00 | 0.00 | 0.00 | 74 | 1008.3 |
| 20260830130040 | 85 | 177 | 1.0 | 3.0 | 0.00 | 0.00 | 0.00 | 74 | 1008.4 |
| 20260830125520 | 85 | 184 | 0.0 | 3.0 | 0.00 | 0.00 | 0.00 | 75 | 1008.5 |
| 20260830125030 | 85 | 185 | 1.0 | 3.0 | 0.00 | 0.00 | 0.00 | 74 | 1008.5 |
| 20260830124538 | 85 | 176 | 0.0 | 4.0 | 0.00 | 0.00 | 0.00 | 74 | 1008.6 |
| 20260830124018 | 85 | 171 | 1.0 | 4.0 | 0.00 | 0.00 | 0.00 | 74 | 1008.5 |
| 20260830123524 | 85 | 174 | 1.0 | 3.0 | 0.00 | 0.00 | 0.00 | 74 | 1008.6 |
| 20260830123052 | 85 | 183 | 1.0 | 3.0 | 0.00 | 0.00 | 0.00 | 74 | 1008.5 |
| 20260830122538 | 85 | 183 | 1.0 | 3.0 | 0.00 | 0.00 | 0.00 | 74 | 1008.6 |
| 20260830122020 | 85 | 155 | 0.0 | 3.0 | 0.00 | 0.00 | 0.00 | 74 | 1008.6 |
| 20260830121529 | 85 | 172 | 2.0 | 3.0 | 0.00 | 0.00 | 0.00 | 74 | 1008.7 |
| 20260830121100 | 85 | 186 | 2.0 | 4.0 | 0.00 | 0.00 | 0.00 | 73 | 1008.6 |
| 20260830120519 | 85 | 198 | 3.0 | 5.0 | 0.00 | 0.00 | 0.00 | 73 | 1008.5 |
| 20260830120137 | 85 | 179 | 3.0 | 6.0 | 0.00 | 0.00 | 0.00 | 73 | 1008.6 |
| 20260830115601 | 86 | 191 | 2.0 | 6.0 | 0.00 | 0.00 | 0.00 | 72 | 1008.6 |
| 20260830115021 | 86 | 182 | 3.0 | 5.0 | 0.00 | 0.00 | 0.00 | 71 | 1008.6 |
| 20260830114529 | 86 | 173 | 2.0 | 6.0 | 0.00 | 0.00 | 0.00 | 71 | 1008.6 |
| 20260830114040 | 86 | 190 | 3.0 | 6.0 | 0.00 | 0.00 | 0.00 | 70 | 1008.6 |
| 20260830113522 | 87 | 200 | 3.0 | 6.0 | 0.00 | 0.00 | 0.00 | 69 | 1008.5 |
| 20260830113018 | 87 | 167 | 2.0 | 6.0 | 0.00 | 0.00 | 0.00 | 68 | 1008.4 |
| 20260830112526 | 87 | 183 | 3.0 | 5.0 | 0.00 | 0.00 | 0.00 | 67 | 1008.4 |
| 20260830112038 | 87 | 154 | 2.0 | 5.0 | 0.00 | 0.00 | 0.00 | 66 | 1008.3 |
| 20260830111539 | 87 | 200 | 2.0 | 5.0 | 0.00 | 0.00 | 0.00 | 66 | 1008.1 |
| 20260830111028 | 87 | 167 | 2.0 | 5.0 | 0.00 | 0.00 | 0.00 | 65 | 1008.1 |
| 20260830110536 | 87 | 150 | 1.0 | 5.0 | 0.00 | 0.00 | 0.00 | 65 | 1008.0 |
| 20260830110037 | 87 | 153 | 1.0 | 5.0 | 0.00 | 0.00 | 0.00 | 65 | 1007.9 |
| 20260830105537 | 88 | 163 | 2.0 | 5.0 | 0.00 | 0.00 | 0.00 | 64 | 1007.9 |
| 20260830105022 | 87 | 145 | 1.0 | 6.0 | 0.00 | 0.00 | 0.00 | 64 | 1007.8 |
| 20260830104622 | 88 | 162 | 2.0 | 6.0 | 0.00 | 0.00 | 0.00 | 64 | 1007.8 |
| 20260830104019 | 88 | 162 | 2.0 | 6.0 | 0.00 | 0.00 | 0.00 | 65 | 1007.7 |
| 20260830103530 | 88 | 158 | 3.0 | 6.0 | 0.00 | 0.00 | 0.00 | 65 | 1007.7 |
| 20260830103038 | 88 | 153 | 3.0 | 7.0 | 0.00 | 0.00 | 0.00 | 65 | 1007.6 |
| 20260830102519 | 88 | 192 | 4.0 | 7.0 | 0.00 | 0.00 | 0.00 | 66 | 1007.4 |
| 20260830102026 | 88 | 205 | 4.0 | 7.0 | 0.00 | 0.00 | 0.00 | 66 | 1007.3 |
| 20260830101532 | 88 | 160 | 3.0 | 6.0 | 0.00 | 0.00 | 0.00 | 66 | 1007.1 |